When you browse on this site, cookies collect data to enhance your experience and personalize the content and advertising you see.
Visit our Privacy Policy to learn more. By continuing to use the site, you agree to this use of cookies and data.
  • In Switzerland
  • List of Countries
  • For 7 days
  • Water Temperature
  • Satellite Maps
  • Weather Map
  • Weather Widgets
  • user-avatar
    Login

    Hourly Weather Yancheng

    Today, 23 May, Thursday

    Time Temperature Precipitation Wind Pressure Humidity
    00:00 +22°C° 0 mm 4 mps 755 mmHg 32%
    01:00 +21°C° 0 mm 3 mps 755 mmHg 34%
    02:00 +21°C° 0 mm 3 mps 755 mmHg 37%
    03:00 +21°C° 0 mm 3 mps 755 mmHg 38%
    04:00 +20°C° 0 mm 3 mps 756 mmHg 39%
    05:00 +20°C° 0 mm 3 mps 756 mmHg 40%
    06:00 +22°C° 0 mm 4 mps 756 mmHg 39%
    07:00 +25°C° 0 mm 4 mps 756 mmHg 38%
    08:00 +28°C° 0 mm 4 mps 757 mmHg 38%
    09:00 +30°C° 0 mm 4 mps 757 mmHg 34%
    10:00 +34°C° 0 mm 4 mps 757 mmHg 30%
    11:00 +36°C° 0 mm 5 mps 757 mmHg 27%
    12:00 +37°C° 0 mm 5 mps 757 mmHg 24%
    13:00 +39°C° 0 mm 5 mps 756 mmHg 21%
    14:00 +39°C° 0 mm 5 mps 756 mmHg 18%
    15:00 +38°C° 0 mm 4 mps 756 mmHg 20%
    16:00 +37°C° 0 mm 4 mps 756 mmHg 21%
    17:00 +37°C° 0 mm 3 mps 755 mmHg 22%
    18:00 +34°C° 0 mm 3 mps 756 mmHg 24%
    19:00 +31°C° 0 mm 3 mps 756 mmHg 26%
    20:00 +28°C° 0 mm 3 mps 756 mmHg 28%
    21:00 +28°C° 0 mm 3 mps 756 mmHg 29%
    22:00 +27°C° 0 mm 4 mps 756 mmHg 29%
    23:00 +26°C° 0 mm 4 mps 757 mmHg 29%

    Tomorrow, 24 May, Friday

    Time Temperature Precipitation Wind Pressure Humidity
    00:00 +26°C° 0 mm 4 mps 757 mmHg 29%
    01:00 +25°C° 0 mm 4 mps 757 mmHg 28%
    02:00 +25°C° 0 mm 4 mps 757 mmHg 28%
    03:00 +23°C° 0 mm 4 mps 757 mmHg 32%
    04:00 +23°C° 0 mm 4 mps 757 mmHg 36%
    05:00 +22°C° 0 mm 4 mps 757 mmHg 40%
    06:00 +25°C° 0 mm 4 mps 757 mmHg 38%
    07:00 +28°C° 0 mm 5 mps 757 mmHg 37%
    08:00 +30°C° 0 mm 5 mps 758 mmHg 36%
    09:00 +33°C° 0 mm 5 mps 758 mmHg 29%
    10:00 +35°C° 0 mm 6 mps 758 mmHg 22%
    11:00 +38°C° 0 mm 6 mps 758 mmHg 16%
    12:00 +39°C° 0 mm 6 mps 757 mmHg 15%
    13:00 +39°C° 0 mm 6 mps 757 mmHg 14%
    14:00 +40°C° 0 mm 6 mps 756 mmHg 13%
    15:00 +39°C° 0 mm 5 mps 756 mmHg 15%
    16:00 +39°C° 0 mm 5 mps 756 mmHg 17%
    17:00 +37°C° 0 mm 4 mps 755 mmHg 19%
    18:00 +34°C° 0 mm 4 mps 755 mmHg 21%
    19:00 +32°C° 0 mm 5 mps 755 mmHg 23%
    20:00 +28°C° 0 mm 5 mps 755 mmHg 26%
    21:00 +28°C° 0 mm 5 mps 756 mmHg 28%
    22:00 +27°C° 0 mm 6 mps 756 mmHg 31%
    23:00 +26°C° 0 mm 6 mps 756 mmHg 33%

    Day after tomorrow, 25 May, Saturday

    Time Temperature Precipitation Wind Pressure Humidity
    00:00 +26°C° 0 mm 6 mps 756 mmHg 36%
    01:00 +25°C° 0 mm 5 mps 756 mmHg 39%
    02:00 +23°C° 0 mm 4 mps 756 mmHg 42%
    03:00 +23°C° 0 mm 4 mps 755 mmHg 46%
    04:00 +23°C° 0 mm 4 mps 755 mmHg 49%
    05:00 +23°C° 0 mm 5 mps 755 mmHg 53%
    06:00 +25°C° 0 mm 5 mps 756 mmHg 54%
    07:00 +26°C° 0 mm 6 mps 756 mmHg 54%
    08:00 +27°C° 0 mm 6 mps 756 mmHg 55%
    09:00 +29°C° 0 mm 6 mps 756 mmHg 52%
    10:00 +30°C° 0 mm 6 mps 756 mmHg 49%
    11:00 +33°C° 0 mm 5 mps 756 mmHg 46%
    12:00 +34°C° 0.1 mm 5 mps 756 mmHg 43%
    13:00 +35°C° 0.1 mm 5 mps 755 mmHg 40%
    14:00 +36°C° 0.1 mm 5 mps 755 mmHg 38%
    15:00 +35°C° 0 mm 5 mps 754 mmHg 39%
    16:00 +35°C° 0 mm 5 mps 754 mmHg 41%
    17:00 +35°C° 0 mm 5 mps 753 mmHg 42%
    18:00 +34°C° 0 mm 6 mps 754 mmHg 47%
    19:00 +32°C° 0 mm 6 mps 754 mmHg 53%
    20:00 +30°C° 0 mm 7 mps 754 mmHg 58%
    21:00 +29°C° 0 mm 7 mps 755 mmHg 61%
    22:00 +28°C° 0 mm 7 mps 755 mmHg 64%
    23:00 +27°C° 0 mm 6 mps 756 mmHg 68%

    26 May, Sunday

    Time Temperature Precipitation Wind Pressure Humidity
    00:00 +27°C° 0.1 mm 6 mps 755 mmHg 69%
    01:00 +26°C° 0.1 mm 6 mps 755 mmHg 70%
    02:00 +26°C° 0.1 mm 5 mps 755 mmHg 71%
    03:00 +26°C° 0 mm 5 mps 755 mmHg 72%
    04:00 +25°C° 0 mm 5 mps 754 mmHg 73%
    05:00 +25°C° 0 mm 5 mps 754 mmHg 73%
    06:00 +26°C° 0 mm 5 mps 755 mmHg 71%
    07:00 +27°C° 0 mm 6 mps 755 mmHg 68%
    08:00 +28°C° 0 mm 6 mps 755 mmHg 66%
    09:00 +28°C° 0 mm 6 mps 755 mmHg 65%
    10:00 +29°C° 0 mm 6 mps 755 mmHg 65%
    11:00 +29°C° 0 mm 6 mps 755 mmHg 64%
    12:00 +28°C° 0.4 mm 6 mps 755 mmHg 69%
    13:00 +28°C° 0.4 mm 6 mps 754 mmHg 74%
    14:00 +27°C° 0.4 mm 6 mps 754 mmHg 79%
    15:00 +26°C° 1 mm 5 mps 753 mmHg 82%
    16:00 +26°C° 1 mm 5 mps 753 mmHg 84%
    17:00 +26°C° 1 mm 4 mps 752 mmHg 87%
    18:00 +25°C° 0.2 mm 4 mps 752 mmHg 88%
    19:00 +25°C° 0.2 mm 4 mps 752 mmHg 89%
    20:00 +23°C° 0.2 mm 4 mps 752 mmHg 91%
    21:00 +24°C° 0.3 mm 3 mps 752 mmHg 92%
    22:00 +25°C° 0.3 mm 3 mps 752 mmHg 93%
    23:00 +25°C° 0.3 mm 2 mps 752 mmHg 94%

    27 May, Monday

    Time Temperature Precipitation Wind Pressure Humidity
    00:00 +24°C° 0.2 mm 2 mps 752 mmHg 94%
    01:00 +24°C° 0.2 mm 2 mps 751 mmHg 95%
    02:00 +24°C° 0.2 mm 2 mps 750 mmHg 96%
    03:00 +24°C° 0 mm 3 mps 751 mmHg 95%
    04:00 +24°C° 0 mm 3 mps 751 mmHg 95%
    05:00 +22°C° 0 mm 4 mps 751 mmHg 95%
    06:00 +22°C° 0 mm 7 mps 752 mmHg 85%
    07:00 +21°C° 0 mm 9 mps 753 mmHg 76%
    08:00 +21°C° 0 mm 11 mps 755 mmHg 66%
    09:00 +22°C° 0 mm 12 mps 755 mmHg 60%
    10:00 +23°C° 0 mm 12 mps 756 mmHg 54%
    11:00 +23°C° 0 mm 12 mps 757 mmHg 48%
    12:00 +24°C° 0 mm 11 mps 757 mmHg 46%
    13:00 +24°C° 0 mm 11 mps 757 mmHg 44%
    14:00 +24°C° 0 mm 11 mps 757 mmHg 42%
    15:00 +23°C° 0 mm 10 mps 758 mmHg 42%
    16:00 +23°C° 0 mm 10 mps 758 mmHg 42%
    17:00 +22°C° 0 mm 10 mps 759 mmHg 42%
    18:00 +21°C° 0 mm 8 mps 760 mmHg 46%
    19:00 +19°C° 0 mm 6 mps 760 mmHg 49%
    20:00 +18°C° 0 mm 4 mps 761 mmHg 53%
    21:00 +18°C° 0 mm 3 mps 761 mmHg 54%
    22:00 +17°C° 0 mm 3 mps 762 mmHg 55%
    23:00 +17°C° 0 mm 2 mps 762 mmHg 56%

    28 May, Tuesday

    Time Temperature Precipitation Wind Pressure Humidity
    00:00 +17°C° 0 mm 2 mps 762 mmHg 57%
    01:00 +16°C° 0 mm 2 mps 762 mmHg 59%
    02:00 +16°C° 0 mm 2 mps 762 mmHg 61%
    03:00 +15°C° 0 mm 2 mps 762 mmHg 61%
    04:00 +15°C° 0 mm 2 mps 762 mmHg 60%
    05:00 +15°C° 0 mm 2 mps 762 mmHg 60%
    06:00 +17°C° 0 mm 2 mps 762 mmHg 53%
    07:00 +19°C° 0 mm 2 mps 763 mmHg 45%
    08:00 +23°C° 0 mm 2 mps 763 mmHg 38%
    09:00 +24°C° 0 mm 3 mps 763 mmHg 33%
    10:00 +26°C° 0 mm 3 mps 763 mmHg 28%
    11:00 +28°C° 0 mm 4 mps 763 mmHg 23%
    12:00 +28°C° 0 mm 4 mps 762 mmHg 22%
    13:00 +29°C° 0 mm 4 mps 762 mmHg 22%
    14:00 +29°C° 0 mm 4 mps 761 mmHg 21%
    15:00 +28°C° 0 mm 4 mps 761 mmHg 23%
    16:00 +27°C° 0 mm 4 mps 761 mmHg 25%
    17:00 +27°C° 0 mm 4 mps 761 mmHg 27%
    18:00 +24°C° 0 mm 3 mps 761 mmHg 33%
    19:00 +21°C° 0 mm 3 mps 761 mmHg 39%
    20:00 +19°C° 0 mm 3 mps 761 mmHg 45%
    21:00 +19°C° 0 mm 3 mps 761 mmHg 45%
    22:00 +18°C° 0 mm 3 mps 761 mmHg 46%
    23:00 +17°C° 0 mm 3 mps 761 mmHg 47%
    Show more